Location: Unspecified
(54.1780°N, 0.0000°E)
Time: 09:55:46
(UTC+00:00)

Vanguard 2 - Pass Details

Date: 18 June 2019
Orbit: 553 x 2938 km, 32.9° (Epoch: 19 July)

Event Time Altitude Azimuth Distance (km) Brightness Sun altitude
Rises 15:10:55 0° 257° (WSW) 5,344 12.6 43.3°
Reaches altitude 10° 15:16:50 10° 235° (SW) 4,836 12.7 42.5°
Maximum altitude 15:22:48 14° 210° (SSW) 4,902 12.4 41.6°
Drops below altitude 10° 15:29:30 10° 185° (S) 5,550 12.2 40.7°
Sets 15:37:35 0° 165° (SSE) 6,764 12.4 39.6°
